Time,TemperatureF,DewpointF,PressureIn,WindDirection,WindDirectionDegrees,WindSpeedMPH,WindSpeedGustMPH,Humidity,HourlyPrecipIn,Conditions,Clouds,dailyrainin,SoftwareType,DateUTC
2013-02-05 00:02:00,26.0,15.0,29.97,North,0,0.0,0.0,62,0.00,,,0.00,,2013-02-05 05:02:00,
2013-02-05 00:11:00,26.0,15.0,29.97,North,0,0.0,0.0,62,0.00,,,0.00,,2013-02-05 05:11:00,
2013-02-05 00:22:00,27.0,16.0,29.97,North,0,0.0,0.0,62,0.00,,,0.00,,2013-02-05 05:22:00,
2013-02-05 00:32:00,27.0,16.0,29.97,North,0,0.0,0.0,64,0.00,,,0.00,,2013-02-05 05:32:00,
2013-02-05 00:42:00,27.0,16.0,29.97,North,0,0.0,0.0,64,0.00,,,0.00,,2013-02-05 05:42:00,
2013-02-05 00:52:00,27.0,16.0,29.96,North,0,0.0,0.0,62,0.00,,,0.00,,2013-02-05 05:52:00,
2013-02-05 01:02:00,27.0,15.0,29.96,North,0,0.0,0.0,61,0.00,,,0.00,,2013-02-05 06:02:00,
2013-02-05 01:11:00,27.0,15.0,29.96,North,0,0.0,0.0,61,0.00,,,0.00,,2013-02-05 06:11:00,
2013-02-05 01:21:00,27.0,15.0,29.96,North,0,0.0,0.0,61,0.00,,,0.00,,2013-02-05 06:21:00,
2013-02-05 01:32:00,28.0,17.0,29.96,North,0,0.0,0.0,64,0.00,,,0.00,,2013-02-05 06:32:00,
2013-02-05 01:42:00,28.0,17.0,29.96,North,0,0.0,0.0,64,0.00,,,0.00,,2013-02-05 06:42:00,
2013-02-05 01:51:00,28.0,18.0,29.96,North,0,0.0,0.0,65,0.00,,,0.00,,2013-02-05 06:51:00,
2013-02-05 02:01:00,28.0,18.0,29.96,North,0,0.0,0.0,65,0.00,,,0.00,,2013-02-05 07:01:00,
2013-02-05 02:11:00,28.0,18.0,29.96,North,0,0.0,0.0,65,0.00,,,0.00,,2013-02-05 07:11:00,
2013-02-05 02:22:00,28.0,18.0,29.95,North,0,0.0,0.0,65,0.00,,,0.00,,2013-02-05 07:22:00,
2013-02-05 02:32:00,28.0,18.0,29.96,North,0,0.0,0.0,66,0.00,,,0.00,,2013-02-05 07:32:00,
2013-02-05 02:42:00,28.0,18.0,29.96,North,0,0.0,0.0,66,0.00,,,0.00,,2013-02-05 07:42:00,
2013-02-05 02:52:00,28.0,19.0,29.95,North,0,0.0,0.0,68,0.00,,,0.00,,2013-02-05 07:52:00,
2013-02-05 03:01:00,28.0,19.0,29.95,North,0,0.0,0.0,68,0.00,,,0.00,,2013-02-05 08:01:00,
2013-02-05 03:11:00,28.0,19.0,29.95,North,0,0.0,0.0,68,0.00,,,0.00,,2013-02-05 08:11:00,
2013-02-05 03:21:00,28.0,19.0,29.95,North,0,0.0,0.0,68,0.00,,,0.00,,2013-02-05 08:21:00,
2013-02-05 03:31:00,28.0,20.0,29.95,North,0,0.0,0.0,73,0.00,,,0.00,,2013-02-05 08:31:00,
2013-02-05 03:42:00,28.0,20.0,29.95,North,0,0.0,0.0,73,0.00,,,0.00,,2013-02-05 08:42:00,
2013-02-05 03:52:00,28.0,20.0,29.95,North,0,0.0,0.0,73,0.00,,,0.00,,2013-02-05 08:52:00,
2013-02-05 04:02:00,28.0,21.0,29.95,North,0,0.0,0.0,74,0.00,,,0.00,,2013-02-05 09:02:00,
2013-02-05 04:11:00,28.0,21.0,29.94,North,0,0.0,0.0,74,0.00,,,0.00,,2013-02-05 09:11:00,
2013-02-05 04:21:00,28.0,21.0,29.94,North,0,0.0,0.0,74,0.00,,,0.00,,2013-02-05 09:21:00,
2013-02-05 04:32:00,27.0,21.0,29.93,SW,229,0.0,1.0,78,0.00,,,0.00,,2013-02-05 09:32:00,
2013-02-05 04:42:00,27.0,21.0,29.93,SW,229,0.0,1.0,78,0.00,,,0.00,,2013-02-05 09:42:00,
2013-02-05 04:52:00,27.0,22.0,29.93,SW,226,0.0,1.0,80,0.00,,,0.00,,2013-02-05 09:52:00,
2013-02-05 05:02:00,27.0,22.0,29.94,North,0,0.0,0.0,81,0.00,,,0.00,,2013-02-05 10:02:00,
2013-02-05 05:11:00,27.0,22.0,29.94,North,0,0.0,0.0,81,0.00,,,0.00,,2013-02-05 10:11:00,
2013-02-05 05:21:00,27.0,22.0,29.94,North,0,0.0,0.0,81,0.00,,,0.00,,2013-02-05 10:21:00,
2013-02-05 05:32:00,27.0,22.0,29.93,NNE,17,0.0,1.0,81,0.00,,,0.00,,2013-02-05 10:32:00,
2013-02-05 05:42:00,27.0,22.0,29.93,NNE,17,0.0,1.0,81,0.00,,,0.00,,2013-02-05 10:42:00,
2013-02-05 05:52:00,27.0,22.0,29.93,NNE,17,0.0,1.0,81,0.00,,,0.00,,2013-02-05 10:52:00,
2013-02-05 06:01:00,27.0,22.0,29.95,NNE,23,0.0,2.0,82,0.00,,,0.00,,2013-02-05 11:01:00,
2013-02-05 06:11:00,27.0,22.0,29.95,NNE,23,0.0,2.0,82,0.00,,,0.00,,2013-02-05 11:11:00,
2013-02-05 06:22:00,27.0,23.0,29.95,NNE,12,0.0,1.0,83,0.00,,,0.00,,2013-02-05 11:22:00,
2013-02-05 06:32:00,27.0,23.0,29.94,NNE,13,0.0,1.0,86,0.00,,,0.00,,2013-02-05 11:32:00,
2013-02-05 06:42:00,27.0,23.0,29.94,NNE,13,0.0,1.0,86,0.00,,,0.00,,2013-02-05 11:42:00,
2013-02-05 06:52:00,27.0,24.0,29.95,NE,35,0.0,2.0,87,0.00,,,0.00,,2013-02-05 11:52:00,
2013-02-05 07:02:00,27.0,24.0,29.96,NNW,334,0.0,1.0,87,0.00,,,0.00,,2013-02-05 12:02:00,
2013-02-05 07:12:00,27.0,24.0,29.96,NNW,334,0.0,1.0,87,0.00,,,0.00,,2013-02-05 12:12:00,
2013-02-05 07:22:00,27.0,24.0,29.96,North,353,0.0,1.0,88,0.00,,,0.00,,2013-02-05 12:22:00,
2013-02-05 07:32:00,27.0,24.0,29.96,NNE,25,0.0,1.0,88,0.00,,,0.00,,2013-02-05 12:32:00,
2013-02-05 07:42:00,27.0,24.0,29.96,NNE,25,0.0,1.0,88,0.00,,,0.00,,2013-02-05 12:42:00,
2013-02-05 07:52:00,27.0,24.0,29.96,NNE,25,0.0,1.0,88,0.00,,,0.00,,2013-02-05 12:52:00,
2013-02-05 08:02:00,27.0,24.0,29.97,NE,44,1.0,6.0,87,0.00,,,0.00,,2013-02-05 13:02:00,
2013-02-05 08:12:00,27.0,24.0,29.97,NNE,26,1.0,3.0,87,0.00,,,0.00,,2013-02-05 13:12:00,
2013-02-05 08:22:00,27.0,24.0,29.97,NNE,26,1.0,3.0,87,0.00,,,0.00,,2013-02-05 13:22:00,
2013-02-05 08:32:00,28.0,24.0,29.98,NE,51,1.0,5.0,86,0.00,,,0.00,,2013-02-05 13:32:00,
2013-02-05 08:42:00,28.0,24.0,29.98,NE,51,1.0,5.0,86,0.00,,,0.00,,2013-02-05 13:42:00,
2013-02-05 08:52:00,28.0,24.0,29.98,NE,51,1.0,5.0,86,0.00,,,0.00,,2013-02-05 13:52:00,
2013-02-05 09:01:00,28.0,24.0,29.98,East,79,0.0,2.0,84,0.00,,,0.00,,2013-02-05 14:01:00,
2013-02-05 09:12:00,28.0,24.0,29.98,East,79,0.0,2.0,84,0.00,,,0.00,,2013-02-05 14:12:00,
2013-02-05 09:21:00,28.0,24.0,29.98,NE,47,0.0,4.0,85,0.00,,,0.00,,2013-02-05 14:21:00,
2013-02-05 09:32:00,28.0,24.0,29.98,NE,55,1.0,5.0,86,0.00,,,0.00,,2013-02-05 14:32:00,
2013-02-05 09:42:00,28.0,24.0,29.98,NE,55,1.0,5.0,86,0.00,,,0.00,,2013-02-05 14:42:00,
2013-02-05 09:52:00,28.0,24.0,29.98,NE,55,1.0,5.0,86,0.00,,,0.00,,2013-02-05 14:52:00,
2013-02-05 10:02:00,28.0,24.0,29.98,NE,55,1.0,5.0,86,0.00,,,0.00,,2013-02-05 15:02:00,
2013-02-05 10:11:00,28.0,24.0,29.98,NE,55,1.0,5.0,86,0.00,,,0.00,,2013-02-05 15:11:00,
2013-02-05 10:22:00,29.0,25.0,29.99,ENE,61,1.0,4.0,84,0.00,,,0.00,,2013-02-05 15:22:00,
2013-02-05 10:32:00,29.0,25.0,29.99,ENE,61,1.0,4.0,84,0.00,,,0.00,,2013-02-05 15:32:00,
2013-02-05 10:42:00,29.0,25.0,29.99,ENE,61,1.0,4.0,84,0.00,,,0.00,,2013-02-05 15:42:00,
2013-02-05 10:52:00,29.0,25.0,29.99,ENE,62,1.0,5.0,83,0.00,,,0.00,,2013-02-05 15:52:00,
2013-02-05 11:01:00,29.0,25.0,29.99,ENE,66,2.0,6.0,83,0.00,,,0.00,,2013-02-05 16:01:00,
2013-02-05 11:12:00,29.0,25.0,29.99,ENE,66,2.0,6.0,83,0.00,,,0.00,,2013-02-05 16:12:00,
2013-02-05 11:22:00,29.0,24.0,29.99,NE,41,2.0,4.0,82,0.00,,,0.00,,2013-02-05 16:22:00,
2013-02-05 11:32:00,29.0,24.0,29.99,NE,41,2.0,4.0,82,0.00,,,0.00,,2013-02-05 16:32:00,
2013-02-05 11:42:00,29.0,24.0,29.99,NE,41,2.0,4.0,82,0.00,,,0.00,,2013-02-05 16:42:00,
2013-02-05 11:52:00,29.0,24.0,29.99,NE,41,2.0,4.0,82,0.00,,,0.00,,2013-02-05 16:52:00,
2013-02-05 12:01:00,29.0,24.0,29.97,ENE,61,2.0,5.0,81,0.00,,,0.00,,2013-02-05 17:01:00,
2013-02-05 12:12:00,29.0,24.0,29.97,ENE,61,2.0,5.0,81,0.00,,,0.00,,2013-02-05 17:12:00,
2013-02-05 12:22:00,29.0,24.0,29.97,ENE,61,2.0,5.0,81,0.00,,,0.00,,2013-02-05 17:22:00,
2013-02-05 12:32:00,30.0,25.0,29.97,ENE,74,1.0,3.0,81,0.00,,,0.00,,2013-02-05 17:32:00,
2013-02-05 12:42:00,30.0,25.0,29.97,ENE,74,1.0,3.0,81,0.00,,,0.00,,2013-02-05 17:42:00,
2013-02-05 12:52:00,30.0,25.0,29.96,East,83,0.0,2.0,81,0.00,,,0.00,,2013-02-05 17:52:00,
2013-02-05 13:02:00,30.0,25.0,29.96,NE,49,1.0,2.0,80,0.00,,,0.00,,2013-02-05 18:02:00,
2013-02-05 13:11:00,30.0,25.0,29.96,NE,49,1.0,2.0,80,0.00,,,0.00,,2013-02-05 18:11:00,
2013-02-05 13:22:00,30.0,25.0,29.96,NE,55,1.0,3.0,80,0.00,,,0.00,,2013-02-05 18:22:00,
2013-02-05 13:32:00,30.0,25.0,29.96,NNE,24,0.0,2.0,80,0.00,,,0.00,,2013-02-05 18:32:00,
2013-02-05 13:42:00,30.0,25.0,29.96,NNE,24,0.0,2.0,80,0.00,,,0.00,,2013-02-05 18:42:00,
2013-02-05 13:52:00,30.0,25.0,29.95,NNW,341,0.0,1.0,80,0.00,,,0.00,,2013-02-05 18:52:00,
2013-02-05 14:02:00,31.0,25.0,29.94,NE,36,0.0,4.0,79,0.00,,,0.00,,2013-02-05 19:02:00,
2013-02-05 14:11:00,31.0,25.0,29.94,NE,36,0.0,4.0,79,0.00,,,0.00,,2013-02-05 19:11:00,
2013-02-05 14:22:00,31.0,26.0,29.93,East,84,1.0,2.0,80,0.00,,,0.00,,2013-02-05 19:22:00,
2013-02-05 14:32:00,31.0,26.0,29.93,East,84,1.0,2.0,80,0.00,,,0.00,,2013-02-05 19:32:00,
2013-02-05 14:42:00,31.0,26.0,29.93,East,84,1.0,2.0,80,0.00,,,0.00,,2013-02-05 19:42:00,
2013-02-05 14:52:00,31.0,26.0,29.93,East,84,1.0,2.0,80,0.00,,,0.00,,2013-02-05 19:52:00,
2013-02-05 15:02:00,31.0,26.0,29.93,East,84,1.0,2.0,80,0.00,,,0.00,,2013-02-05 20:02:00,
2013-02-05 15:22:00,31.0,26.0,29.92,East,94,0.0,1.0,80,0.00,,,0.00,,2013-02-05 20:22:00,
2013-02-05 15:32:00,31.0,26.0,29.93,SE,140,1.0,3.0,81,0.00,,,0.00,,2013-02-05 20:32:00,
2013-02-05 15:42:00,31.0,26.0,29.93,SE,140,1.0,3.0,81,0.00,,,0.00,,2013-02-05 20:42:00,
2013-02-05 15:52:00,31.0,26.0,29.94,SE,135,0.0,1.0,81,0.00,,,0.00,,2013-02-05 20:52:00,
2013-02-05 16:02:00,31.0,26.0,29.93,SSE,160,0.0,2.0,82,0.00,,,0.00,,2013-02-05 21:02:00,
2013-02-05 16:11:00,31.0,26.0,29.93,SSE,160,0.0,2.0,82,0.00,,,0.00,,2013-02-05 21:11:00,
2013-02-05 16:22:00,31.0,26.0,29.93,SSE,160,0.0,2.0,82,0.00,,,0.00,,2013-02-05 21:22:00,
2013-02-05 16:32:00,31.0,26.0,29.92,SE,141,1.0,2.0,82,0.00,,,0.00,,2013-02-05 21:32:00,
2013-02-05 16:42:00,31.0,26.0,29.92,SE,141,1.0,2.0,82,0.00,,,0.00,,2013-02-05 21:42:00,
2013-02-05 16:52:00,31.0,26.0,29.92,SE,141,1.0,2.0,82,0.00,,,0.00,,2013-02-05 21:52:00,
2013-02-05 17:02:00,31.0,26.0,29.93,SE,139,0.0,3.0,82,0.00,,,0.00,,2013-02-05 22:02:00,
2013-02-05 17:11:00,31.0,26.0,29.93,SE,139,0.0,3.0,82,0.00,,,0.00,,2013-02-05 22:11:00,
2013-02-05 17:22:00,30.0,25.0,29.93,SSE,152,1.0,3.0,82,0.00,,,0.00,,2013-02-05 22:22:00,
2013-02-05 17:32:00,30.0,25.0,29.93,SSE,152,1.0,3.0,82,0.00,,,0.00,,2013-02-05 22:32:00,
2013-02-05 17:42:00,30.0,25.0,29.93,SSE,152,1.0,3.0,82,0.00,,,0.00,,2013-02-05 22:42:00,
2013-02-05 17:52:00,30.0,26.0,29.92,SSE,160,0.0,3.0,85,0.00,,,0.00,,2013-02-05 22:52:00,
2013-02-05 18:02:00,30.0,26.0,29.92,SE,142,1.0,4.0,85,0.00,,,0.00,,2013-02-05 23:02:00,
2013-02-05 18:11:00,30.0,26.0,29.92,SE,142,1.0,4.0,85,0.00,,,0.00,,2013-02-05 23:11:00,
2013-02-05 18:22:00,30.0,26.0,29.92,SE,142,1.0,4.0,85,0.00,,,0.00,,2013-02-05 23:22:00,
2013-02-05 18:32:00,30.0,26.0,29.91,ESE,106,0.0,1.0,85,0.00,,,0.00,,2013-02-05 23:32:00,
2013-02-05 18:42:00,30.0,26.0,29.91,ESE,106,0.0,1.0,85,0.00,,,0.00,,2013-02-05 23:42:00,
2013-02-05 18:53:00,30.0,26.0,29.93,SSE,163,1.0,3.0,86,0.00,,,0.00,,2013-02-05 23:53:00,
2013-02-05 19:02:00,30.0,26.0,29.93,ENE,66,0.0,2.0,86,0.00,,,0.00,,2013-02-06 00:02:00,
2013-02-05 19:12:00,30.0,26.0,29.93,ENE,66,0.0,2.0,86,0.00,,,0.00,,2013-02-06 00:12:00,
2013-02-05 19:22:00,30.0,26.0,29.93,ENE,61,0.0,2.0,86,0.00,,,0.00,,2013-02-06 00:22:00,
2013-02-05 19:32:00,30.0,27.0,29.93,SE,139,0.0,4.0,88,0.00,,,0.00,,2013-02-06 00:32:00,
2013-02-05 19:42:00,30.0,27.0,29.93,SE,139,0.0,4.0,88,0.00,,,0.00,,2013-02-06 00:42:00,
2013-02-05 19:52:00,30.0,27.0,29.93,SE,139,0.0,4.0,88,0.00,,,0.00,,2013-02-06 00:52:00,
2013-02-05 20:02:00,30.0,27.0,29.93,ENE,62,0.0,2.0,88,0.00,,,0.00,,2013-02-06 01:02:00,
2013-02-05 20:12:00,30.0,27.0,29.93,ENE,62,0.0,2.0,88,0.00,,,0.00,,2013-02-06 01:12:00,
2013-02-05 20:22:00,30.0,27.0,29.93,SSE,163,0.0,1.0,89,0.00,,,0.00,,2013-02-06 01:22:00,
2013-02-05 20:32:00,30.0,27.0,29.92,ENE,60,0.0,3.0,89,0.00,,,0.00,,2013-02-06 01:32:00,
2013-02-05 20:42:00,30.0,27.0,29.92,ENE,60,0.0,3.0,89,0.00,,,0.00,,2013-02-06 01:42:00,
2013-02-05 20:53:00,30.0,27.0,29.92,NNE,21,0.0,1.0,90,0.00,,,0.00,,2013-02-06 01:53:00,
2013-02-05 21:02:00,30.0,27.0,29.92,NNE,21,0.0,1.0,90,0.00,,,0.00,,2013-02-06 02:02:00,
2013-02-05 21:11:00,30.0,27.0,29.92,NNE,21,0.0,1.0,90,0.00,,,0.00,,2013-02-06 02:11:00,
2013-02-05 21:22:00,30.0,27.0,29.92,NNE,21,0.0,1.0,90,0.00,,,0.00,,2013-02-06 02:22:00,
2013-02-05 21:32:00,30.0,27.0,29.92,NNE,27,0.0,1.0,90,0.00,,,0.00,,2013-02-06 02:32:00,
2013-02-05 21:42:00,30.0,27.0,29.92,NNE,27,0.0,1.0,90,0.00,,,0.00,,2013-02-06 02:42:00,
2013-02-05 21:53:00,30.0,27.0,29.93,North,0,0.0,0.0,90,0.00,,,0.00,,2013-02-06 02:53:00,
2013-02-05 22:03:00,30.0,27.0,29.93,NNE,28,0.0,1.0,90,0.00,,,0.00,,2013-02-06 03:03:00,
2013-02-05 22:12:00,30.0,27.0,29.93,NNE,28,0.0,1.0,90,0.00,,,0.00,,2013-02-06 03:12:00,
2013-02-05 22:22:00,30.0,27.0,29.93,NNE,27,0.0,1.0,90,0.00,,,0.00,,2013-02-06 03:22:00,
2013-02-05 22:32:00,30.0,27.0,29.93,NNE,28,0.0,1.0,90,0.00,,,0.00,,2013-02-06 03:32:00,
2013-02-05 22:42:00,30.0,27.0,29.93,NNE,28,0.0,1.0,90,0.00,,,0.00,,2013-02-06 03:42:00,
2013-02-05 22:53:00,30.0,27.0,29.93,ENE,61,1.0,1.0,90,0.00,,,0.00,,2013-02-06 03:53:00,
2013-02-05 23:02:00,30.0,27.0,29.93,North,9,0.0,1.0,90,0.00,,,0.00,,2013-02-06 04:02:00,
2013-02-05 23:11:00,30.0,27.0,29.93,North,9,0.0,1.0,90,0.00,,,0.00,,2013-02-06 04:11:00,
2013-02-05 23:22:00,30.0,27.0,29.93,NW,319,0.0,1.0,90,0.00,,,0.00,,2013-02-06 04:22:00,
2013-02-05 23:32:00,30.0,27.0,29.93,North,352,0.0,1.0,90,0.00,,,0.00,,2013-02-06 04:32:00,
2013-02-05 23:42:00,30.0,27.0,29.93,North,352,0.0,1.0,90,0.00,,,0.00,,2013-02-06 04:42:00,
2013-02-05 23:52:00,30.0,28.0,29.93,North,352,0.0,1.0,91,0.00,,,0.00,,2013-02-06 04:52:00,